Camp Pendleton, CA

10:36 AM PDT on May 23, 2018 (GMT -0700)
Camp Pendleton Marine Corps Air Station

Weather History for KNFG - July, 2013

Change the Weather History Date:

Monday, July 15, 2013

  Actual Average Record
Temperature  
Mean Temperature 74 °F -  
Max Temperature 84 °F 76 °F 98 °F (2006)
Min Temperature 64 °F 57 °F 54 °F (2017)
Cooling Degree Days 9    
Growing Degree Days 24 (Base 50)    
Moisture  
Dew Point 60 °F    
Average Humidity 65    
Maximum Humidity 81    
Minimum Humidity 46    
Precipitation  
Precipitation 0.00 in - - ()
Sea Level Pressure  
Sea Level Pressure 29.85 in    
Wind  
Wind Speed 3 mph (SW)    
Max Wind Speed 13 mph    
Max Gust Speed 21 mph    
Visibility 10 miles    
Events      
Averages and records for this station are not official NWS values.
T = Trace of Precipitation, MM = Missing Value Source: NWS Daily Summary

Daily Weather History Graph

Daily Weather History Graph

Search for Another Location

Airport or City:

Astronomy

Jul. 15, 2013 Rise Set
Actual Time 5:51 AM PDT 7:59 PM PDT
Civil Twilight 5:22 AM PDT 8:27 PM PDT
Nautical Twilight 4:48 AM PDT 9:01 PM PDT
Astronomical Twilight 4:11 AM PDT 9:38 PM PDT
Moon 12:50 PM PDT (7/15) No Moon Set
Length of Visible Light 15h 04m
Length of Day
14h 08m
Waxing Crescent, 46% of the Moon is Illuminated
Jul 15
Waxing Crescent
Jul 15
First Quarter
Jul 22
Full
Jul 29
Last Quarter
Aug 6
New

Hourly Weather History & Observations

Time (PDT) Temp. Heat Index Dew Point Humidity Pressure Visibility Wind Dir Wind Speed Gust Speed Precip Events Conditions
12:54 AM 66.0 °F - 57.9 °F 75% 29.86 in 10.0 mi Calm Calm - N/A   Partly Cloudy
1:25 AM 66.2 °F - 59.0 °F 78% 29.86 in 9.0 mi Calm Calm - N/A   Partly Cloudy
1:45 AM 66.2 °F - 57.2 °F 73% 29.86 in 9.0 mi NE 3.5 mph - N/A   Mostly Cloudy
1:54 AM 66.9 °F - 57.9 °F 73% 29.86 in 10.0 mi Calm Calm - N/A   Mostly Cloudy
2:54 AM 66.9 °F - 59.0 °F 76% 29.86 in 10.0 mi Calm Calm - N/A   Overcast
3:54 AM 66.9 °F - 57.9 °F 73% 29.85 in 10.0 mi ENE 5.8 mph - N/A   Overcast
4:54 AM 66.9 °F - 57.9 °F 73% 29.84 in 10.0 mi NE 3.5 mph - N/A   Overcast
5:54 AM 68.0 °F - 61.0 °F 78% 29.85 in 7.0 mi Calm Calm - N/A   Overcast
6:54 AM 68.0 °F - 62.1 °F 81% 29.86 in 4.0 mi Calm Calm - N/A   Overcast
7:54 AM 71.1 °F - 62.1 °F 73% 29.86 in 8.0 mi Calm Calm - N/A   Scattered Clouds
8:54 AM 75.0 °F - 62.1 °F 64% 29.87 in 10.0 mi South 4.6 mph - N/A   Partly Cloudy
9:54 AM 77.0 °F - 62.1 °F 60% 29.87 in 10.0 mi SW 5.8 mph - N/A   Partly Cloudy
10:54 AM 79.0 °F - 62.1 °F 56% 29.86 in 10.0 mi South 5.8 mph - N/A   Partly Cloudy
11:54 AM 81.0 °F 81.9 °F 62.1 °F 52% 29.86 in 10.0 mi SSW 8.1 mph - N/A   Partly Cloudy
12:54 PM 82.9 °F 83.2 °F 60.1 °F 46% 29.85 in 10.0 mi SW 9.2 mph - N/A   Partly Cloudy
1:54 PM 81.0 °F 81.7 °F 61.0 °F 50% 29.84 in 10.0 mi SW 11.5 mph 17.3 mph N/A   Partly Cloudy
2:54 PM 82.9 °F 83.2 °F 60.1 °F 46% 29.82 in 10.0 mi SW 9.2 mph - N/A   Partly Cloudy
3:54 PM 81.0 °F 81.6 °F 60.1 °F 49% 29.81 in 10.0 mi WSW 12.7 mph 20.7 mph N/A   Partly Cloudy
4:54 PM 80.1 °F 80.9 °F 60.1 °F 50% 29.81 in 10.0 mi West 11.5 mph 18.4 mph N/A   Partly Cloudy
5:54 PM 78.1 °F - 60.1 °F 54% 29.80 in 10.0 mi WSW 11.5 mph - N/A   Clear
6:54 PM 75.0 °F - 61.0 °F 62% 29.81 in 10.0 mi Variable 6.9 mph - N/A   Clear
7:54 PM 72.0 °F - 57.0 °F 59% 29.82 in 10.0 mi SSW 4.6 mph - N/A   Clear
8:54 PM 70.0 °F - 60.1 °F 71% 29.84 in 10.0 mi SW 3.5 mph - N/A   Clear
9:54 PM 69.1 °F - 61.0 °F 75% 29.86 in 10.0 mi Calm Calm - N/A   Clear
10:54 PM 66.0 °F - 55.9 °F 70% 29.87 in 10.0 mi Calm Calm - N/A   Clear
11:54 PM 64.0 °F - 55.9 °F 75% 29.87 in 10.0 mi Calm Calm - N/A   Clear